Change the Weather History Date:

Sunday, August 25, 2013

  Actual Average Record
Temperature  
Mean Temperature 84 °F -  
Max Temperature 89 °F 86 °F 93 °F (1998)
Min Temperature 78 °F 75 °F 75 °F (1996)
Cooling Degree Days 18    
Growing Degree Days 34 (Base 50)    
Moisture  
Dew Point 77 °F    
Average Humidity 82    
Maximum Humidity 94    
Minimum Humidity 70    
Precipitation  
Precipitation 0.00 in - - ()
Sea Level Pressure  
Sea Level Pressure 29.77 in    
Wind  
Wind Speed 5 mph ()    
Max Wind Speed 12 mph    
Max Gust Speed -    
Visibility 6.1 miles    
Events Rain , Thunderstorm    
Averages and records for this station are not official NWS values.
T = Trace of Precipitation, MM = Missing Value Source: Averaged Metar Reports

Daily Weather History Graph

Daily Weather History Graph

Search for Another Location

Airport or City:

Trip Planner

Search our weather history database for the weather conditions in past years. The results will help you decide how hot, cold, wet, or windy it might be!

Date:

Astronomy

Aug. 25, 2013 Rise Set
Actual Time 5:38 AM CST 6:22 PM CST
Civil Twilight 5:15 AM CST 6:45 PM CST
Nautical Twilight 4:48 AM CST 7:12 PM CST
Astronomical Twilight 4:21 AM CST 7:39 PM CST
Moon 9:12 PM CST (8/25) 9:26 AM CST (8/25)
Length of Visible Light 13h 29m
Length of Day
12h 43m
Waning Gibbous, 80% of the Moon is Illuminated
Aug 25
Waning Gibbous
Aug 28
Last Quarter
Sep 5
New
Sep 13
First Quarter
Sep 19
Full

Hourly Weather History & Observations

Time (CST) Temp. Heat Index Dew Point Humidity Pressure Visibility Wind Dir Wind Speed Gust Speed Precip Events Conditions
12:00 AM 80.6 °F 87.1 °F 77.0 °F 89% 29.80 in 6.2 mi Variable 2.3 mph - N/A   Scattered Clouds
1:00 AM 80.6 °F 87.1 °F 77.0 °F 89% 29.80 in 6.2 mi East 6.9 mph - N/A   Scattered Clouds
2:00 AM 80.6 °F 87.1 °F 77.0 °F 89% 29.77 in 6.2 mi Variable 2.3 mph - N/A   Partly Cloudy
3:00 AM 78.8 °F - 77.0 °F 94% 29.77 in 6.2 mi NE 6.9 mph - N/A   Scattered Clouds
4:00 AM 78.8 °F - 75.2 °F 89% 29.77 in 6.2 mi North 3.5 mph - N/A   Mostly Cloudy
5:00 AM 78.8 °F - 75.2 °F 89% 29.77 in 6.2 mi NE 4.6 mph - N/A   Scattered Clouds
6:00 AM 78.8 °F - 75.2 °F 89% 29.77 in 6.2 mi East 2.3 mph - N/A   Scattered Clouds
6:30 AM 78.8 °F - 75.2 °F 89% 29.77 in 6.2 mi East 5.8 mph - N/A   Partly Cloudy
7:00 AM 80.6 °F 87.1 °F 77.0 °F 89% 29.77 in 6.2 mi NE 4.6 mph - N/A   Partly Cloudy
7:30 AM 82.4 °F 89.5 °F 75.2 °F 79% 29.80 in 6.2 mi ENE 4.6 mph - N/A   Partly Cloudy
8:00 AM 84.2 °F 94.1 °F 77.0 °F 79% 29.80 in 6.2 mi NE 4.6 mph - N/A   Partly Cloudy
8:30 AM 86.0 °F 96.9 °F 77.0 °F 74% 29.80 in 6.2 mi NE 3.5 mph - N/A   Partly Cloudy
9:00 AM 87.8 °F 102.5 °F 78.8 °F 75% 29.80 in 6.2 mi ENE 2.3 mph - N/A   Scattered Clouds
9:30 AM 87.8 °F 99.7 °F 77.0 °F 70% 29.80 in 6.2 mi Variable 5.8 mph - N/A   Scattered Clouds
10:00 AM 87.8 °F 99.7 °F 77.0 °F 70% 29.80 in 6.2 mi WSW 6.9 mph - N/A   Scattered Clouds
10:30 AM 87.8 °F 102.5 °F 78.8 °F 75% 29.77 in 6.2 mi WSW 9.2 mph - N/A   Scattered Clouds
11:00 AM 87.8 °F 102.5 °F 78.8 °F 75% 29.77 in 6.2 mi WSW 9.2 mph - N/A   Scattered Clouds
11:30 AM 87.8 °F 102.5 °F 78.8 °F 75% 29.77 in 6.2 mi West 9.2 mph - N/A   Scattered Clouds
12:00 PM 87.8 °F 102.5 °F 78.8 °F 75% 29.77 in 6.2 mi WSW 10.4 mph - N/A   Scattered Clouds
12:30 PM 87.8 °F 102.5 °F 78.8 °F 75% 29.77 in 6.2 mi West 11.5 mph - N/A   Scattered Clouds
1:00 PM 89.6 °F 104.7 °F 78.8 °F 70% 29.77 in 6.2 mi West 9.2 mph - N/A   Scattered Clouds
1:30 PM 89.6 °F 108.2 °F 80.6 °F 75% 29.74 in 6.2 mi West 10.4 mph - N/A   Mostly Cloudy
2:00 PM 89.6 °F 104.7 °F 78.8 °F 70% 29.74 in 6.2 mi West 11.5 mph - N/A   Mostly Cloudy
2:30 PM 89.6 °F 104.7 °F 78.8 °F 70% 29.74 in 6.2 mi WNW 10.4 mph - N/A   Mostly Cloudy
3:00 PM 89.6 °F 104.7 °F 78.8 °F 70% 29.74 in 6.2 mi West 8.1 mph - N/A   Mostly Cloudy
3:30 PM 86.0 °F 96.9 °F 77.0 °F 74% 29.71 in 6.2 mi West 9.2 mph - N/A Thunderstorm Mostly Cloudy
4:00 PM 84.2 °F 94.1 °F 77.0 °F 79% 29.74 in 6.2 mi West 6.9 mph - N/A Rain , Thunderstorm Light Rain Showers
4:30 PM 84.2 °F 94.1 °F 77.0 °F 79% 29.74 in 6.2 mi WNW 8.1 mph - N/A   Mostly Cloudy
5:00 PM 84.2 °F 96.1 °F 78.8 °F 84% 29.74 in 6.2 mi NW 6.9 mph - N/A   Mostly Cloudy
5:30 PM 84.2 °F 96.1 °F 78.8 °F 84% 29.74 in 6.2 mi NNW 4.6 mph - N/A   Mostly Cloudy
6:00 PM 84.2 °F 96.1 °F 78.8 °F 84% 29.74 in 5.0 mi North 5.8 mph - N/A   Mostly Cloudy
6:30 PM 80.6 °F 87.1 °F 77.0 °F 89% 29.74 in 5.0 mi ENE 9.2 mph - N/A   Mostly Cloudy
7:00 PM 80.6 °F 87.1 °F 77.0 °F 89% 29.74 in 6.2 mi ENE 9.2 mph - N/A   Mostly Cloudy
7:30 PM 78.8 °F - 77.0 °F 94% 29.74 in 6.2 mi ENE 6.9 mph - N/A   Mostly Cloudy
8:00 PM 80.6 °F 87.1 °F 77.0 °F 89% 29.77 in 6.2 mi NE 6.9 mph - N/A   Mostly Cloudy
8:30 PM 80.6 °F 87.1 °F 77.0 °F 89% 29.77 in 6.2 mi NE 5.8 mph - N/A   Mostly Cloudy
9:00 PM 80.6 °F 87.1 °F 77.0 °F 89% 29.77 in 6.2 mi NNE 4.6 mph - N/A   Mostly Cloudy
9:30 PM 80.6 °F 87.1 °F 77.0 °F 89% 29.80 in 6.2 mi ENE 4.6 mph - N/A   Mostly Cloudy
10:00 PM 80.6 °F 87.1 °F 77.0 °F 89% 29.80 in 6.2 mi ENE 3.5 mph - N/A   Mostly Cloudy
10:30 PM 80.6 °F 87.1 °F 77.0 °F 89% 29.80 in 6.2 mi ENE 3.5 mph - N/A   Scattered Clouds
11:00 PM 80.6 °F 87.1 °F 77.0 °F 89% 29.80 in 6.2 mi ENE 4.6 mph - N/A   Scattered Clouds
11:30 PM 80.6 °F 87.1 °F 77.0 °F 89% 29.77 in 6.2 mi Variable 2.3 mph - N/A   Partly Cloudy